User: anonymous   Login
Location: ??
(35.5052°N, 139.7262°E)
Time: 02:20:22
(UTC+00:00)
Language:

CARTOSAT-1 - Orbit

View from above orbital plane
View from above orbital plane
View from above satellite
View from above satellite

Ground track
Ground track

The orbit data is extracted from the following two-line orbital elements,

1 28649U 05017A   21259.45404293  .00000092  00000-0  17308-4 0  9996
2 28649  97.7597 323.1384 0002468  63.4854 296.6613 14.83819375886104
Epoch (UTC): 16 September 2021 10:53:49
Eccentricity: 0.0002468
inclination: 97.7597°
perigee height: 615 km
apogee height: 619 km
right ascension of ascending node: 323.1384°
argument of perigee: 63.4854°
revolutions per day: 14.83819375
mean anomaly at epoch: 296.6613°
orbit number at epoch: 88610

The dashed part of the orbit path shows where the satellite is in the earth's shadow,  

DLR